DateTime,DeltaTime,Roll,TargetAngle,Position,Power
2022-05-24 15:23:49.544,0,-0.34,2.05,0,-5.71
2022-05-24 15:23:49.658,0.114000588655472,0.5,6.25,0,-25.36
2022-05-24 15:23:49.774,0.230002775788307,0.87,5.62,1,-15.95
2022-05-24 15:23:49.888,0.344003364443779,0.74,2.92,3,1.22
2022-05-24 15:23:50.003,0.45899972319603,0.46,1.19,2,14.85
2022-05-24 15:23:50.117,0.573000311851501,0.09,-0.55,3,13.83
2022-05-24 15:23:50.232,0.688006728887558,-0.58,-4.36,2,37.16
2022-05-24 15:23:50.347,0.803003087639809,-0.64,-1.86,0,13.98
2022-05-24 15:23:50.461,0.91700367629528,-0.27,1.37,-2,-7.21
2022-05-24 15:23:50.576,1.03200003504753,0.00999999999999998,1.98,-2,-13.54
2022-05-24 15:23:50.692,1.14800222218037,0.47,4.48,-2,-22.98
2022-05-24 15:23:50.801,1.25700384378433,0.72,4.52,0,-20.51
2022-05-24 15:23:50.916,1.37200020253658,0.68,3.09,2,-3.88
2022-05-24 15:23:51.031,1.48700661957264,0.65,3,2,1.79
2022-05-24 15:23:51.145,1.60100720822811,0.4,1.1,1,8.47
2022-05-24 15:23:51.260,1.71600356698036,-0.29,-3.36,0,23.35
2022-05-24 15:23:51.374,1.83000415563583,-1.05,-6.46,0,29.71
2022-05-24 15:23:51.489,1.94500051438808,-1.11,-3.63,0,13.42
2022-05-24 15:23:51.604,2.06000693142414,-0.53,1.33,-3,-7.39
2022-05-24 15:23:51.719,2.17500329017639,0.39,6.19,-3,-40.3
2022-05-24 15:23:51.833,2.28900387883186,0.71,4.78,1,-23.79
2022-05-24 15:23:51.948,2.40400023758411,0.6,2.49,2,5.11
2022-05-24 15:23:52.063,2.51900665462017,0.71,3.85,4,-5.05
2022-05-24 15:23:52.178,2.63400301337242,0.65,2.9,3,10
2022-05-24 15:23:52.293,2.74899937212467,0.00999999999999998,-2.01,3,25.8
2022-05-24 15:23:52.403,2.85900682210922,-0.88,-6.43,2,43.22
2022-05-24 15:23:52.517,2.97300741076469,-0.98,-3.33,0,17.79
2022-05-24 15:23:52.633,3.08899953961372,-0.26,2.96,-3,-17.81
2022-05-24 15:23:52.748,3.20400595664978,0.42,5.29,-3,-33.89
2022-05-24 15:23:52.862,3.31800654530525,0.61,3.83,1,-20.33
2022-05-24 15:23:52.976,3.43200713396072,0.84,4.84,3,-7.95
2022-05-24 15:23:53.091,3.54700349271297,1.14,6.27,4,-9.36
2022-05-24 15:23:53.206,3.66199985146523,1.15,5.01,4,0.93
2022-05-24 15:23:53.320,3.7760004401207,0.43,-0.78,3,26.84
2022-05-24 15:23:53.435,3.89100685715675,-0.7,-6.8,2,44.78
2022-05-24 15:23:53.550,4.006003215909,-0.99,-4.17,-1,20.9
2022-05-24 15:23:53.664,4.12000380456448,-0.44,1.51,-4,-17.15
2022-05-24 15:23:53.779,4.23500016331673,0.43,6.16,-4,-44.31
2022-05-24 15:23:53.896,4.35200817883015,0.69,4.42,0,-26.5
2022-05-24 15:23:54.004,4.46000397205353,0.81,4.22,3,-8.5
2022-05-24 15:23:54.119,4.57500033080578,1.13,6.37,4,-10.16
2022-05-24 15:23:54.234,4.69000674784184,1.23,5.69,5,-3.17
2022-05-24 15:23:54.348,4.80400733649731,0.53,-0.31,4,29.49
2022-05-24 15:23:54.463,4.91900369524956,-0.56,-6.1,3,44.77
2022-05-24 15:23:54.577,5.03300428390503,-0.98,-4.71,-2,27.43
2022-05-24 15:23:54.691,5.1470048725605,-0.44,1.45,-4,-24.57
2022-05-24 15:23:54.806,5.26200123131275,0.19,4.19,-4,-33.95
2022-05-24 15:23:54.921,5.37700764834881,0.63,4.97,0,-32.38
2022-05-24 15:23:55.037,5.49299977719784,0.94,5.6,3,-15.32
2022-05-24 15:23:55.151,5.60700036585331,1.37,7.7,5,-15.76
2022-05-24 15:23:55.266,5.72200678288937,1.41,6.15,6,0.4
2022-05-24 15:23:55.383,5.83900474011898,0.53,-1.16,7,37.22
2022-05-24 15:23:55.495,5.95100373029709,-0.6,-6.45,4,58.43
2022-05-24 15:23:55.605,6.06100112199783,-0.64,-1.79,0,11.32
2022-05-24 15:23:55.720,6.17600753903389,-0.17,2.16,-3,-17.88
2022-05-24 15:23:55.835,6.29100389778614,0.33,4.14,-4,-32.57
2022-05-24 15:23:55.949,6.40500448644161,0.69,4.89,0,-35.45
2022-05-24 15:23:56.064,6.52000084519386,0.94,5.27,4,-15.81
2022-05-24 15:23:56.179,6.63500726222992,1.32,7.28,5,-11.1
2022-05-24 15:23:56.294,6.75000362098217,1.59,7.82,6,-11.74
2022-05-24 15:23:56.408,6.86400420963764,0.92,1.25,6,25.29
2022-05-24 15:23:56.523,6.97900056838989,-0.4,-6.5,4,54.59
2022-05-24 15:23:56.638,7.09400698542595,-0.88,-4.67,0,26.96
2022-05-24 15:23:56.752,7.20800757408142,-0.48,0.71,-3,-14.14
2022-05-24 15:23:56.868,7.32399970293045,0.09,3.57,-4,-31.23
2022-05-24 15:23:56.982,7.43800029158592,0.46,4.02,0,-31.39
2022-05-24 15:23:57.097,7.55300670862198,0.74,4.76,3,-13.9
2022-05-24 15:23:57.211,7.66700729727745,1.38,8.63,5,-22.98
2022-05-24 15:23:57.321,7.7770046889782,1.72,8.56,7,-11.96
2022-05-24 15:23:57.436,7.89200104773045,1.03,1.54,8,30.08
2022-05-24 15:23:57.551,8.0070074647665,-0.12,-4.71,5,55.07
2022-05-24 15:23:57.666,8.12200382351875,-0.5,-2.77,0,22.18
2022-05-24 15:23:57.780,8.23600441217422,-0.4,-0.33,-3,-7.84
2022-05-24 15:23:57.895,8.35100077092648,-0.28,0.25,-4,-15.96
2022-05-24 15:23:58.010,8.46600718796253,0.16,3.23,-2,-31.44
2022-05-24 15:23:58.124,8.580007776618,0.7,5.67,0,-29.11
2022-05-24 15:23:58.239,8.69500413537025,1.1,6.55,3,-23.64
2022-05-24 15:23:58.354,8.81000049412251,1.28,6.28,5,-9.34
2022-05-24 15:23:58.469,8.92500691115856,0.84,1.93,6,17.85
2022-05-24 15:23:58.584,9.04000326991081,-0.13,-4.02,5,44.56
2022-05-24 15:23:58.698,9.15400385856628,-0.66,-4.04,2,31.48
2022-05-24 15:23:58.812,9.26800444722176,-0.75,-2.42,-3,10.46
2022-05-24 15:23:58.923,9.37900766730309,-0.5,0.01,-4,-20.23
2022-05-24 15:23:59.037,9.49300825595856,-0.18,1.49,-2,-23.21
2022-05-24 15:23:59.153,9.60900038480759,0.27,3.69,0,-21.41
2022-05-24 15:23:59.267,9.72300097346306,1,7.61,3,-31.3
2022-05-24 15:23:59.381,9.83700156211853,1.36,7.4,5,-13.39
2022-05-24 15:23:59.497,9.95300374925137,1.1,3.64,6,10.79
2022-05-24 15:23:59.611,10.0670043379068,0.17,-2.65,6,39.85
2022-05-24 15:23:59.726,10.1820006966591,-0.72,-5.84,3,47.03
2022-05-24 15:23:59.841,10.2970071136951,-0.66,-1.44,0,6.66
2022-05-24 15:23:59.955,10.4110077023506,-0.4,0.41,-3,-7.49
2022-05-24 15:24:00.070,10.5260040611029,0.12,3.47,-2,-31.47
2022-05-24 15:24:00.185,10.6410004198551,0.57,4.79,0,-25.7
2022-05-24 15:24:00.299,10.7550010085106,0.86,5.23,3,-18.08
2022-05-24 15:24:00.414,10.8700074255466,1.14,6.17,5,-10.32
2022-05-24 15:24:00.524,10.9800048172474,1.28,6.11,5,-3.01
2022-05-24 15:24:00.639,11.0950011759996,0.8,1.61,5,16.72
2022-05-24 15:24:00.754,11.2100075930357,-0.46,-6.49,5,51.66
2022-05-24 15:24:00.869,11.3250039517879,-0.89,-4.4,1,31.94
2022-05-24 15:24:00.984,11.4400003105402,-0.32,2.05,-4,-16.73
2022-05-24 15:24:01.098,11.5540008991957,0.19,3.67,-3,-36.21
2022-05-24 15:24:01.213,11.6690073162317,0.22,1.67,0,-13.27
2022-05-24 15:24:01.328,11.784003674984,0.44,3.35,3,-10.98
2022-05-24 15:24:01.442,11.8980042636395,1.24,8.85,3,-25.57
2022-05-24 15:24:01.559,12.0150022208691,1.67,8.79,6,-22.52
2022-05-24 15:24:01.672,12.1280070394278,0.91,0.75,7,32.15
2022-05-24 15:24:01.786,12.2420076280832,-0.02,-3.39,5,43.85
2022-05-24 15:24:01.901,12.3570039868355,-0.16,-0.43,0,13.24
2022-05-24 15:24:02.016,12.4720003455877,-0.25,-0.63,-2,-3.77
2022-05-24 15:24:02.126,12.5820077955723,-0.26,-0.25,-3,-9.34
2022-05-24 15:24:02.241,12.6970041543245,0.2,3.5,-2,-30.13
2022-05-24 15:24:02.355,12.81100474298,0.86,6.79,0,-35.98
2022-05-24 15:24:02.470,12.9260011017323,1.03,5.34,4,-16.48
2022-05-24 15:24:02.584,13.0400016903877,0.99,4.23,6,4.06
2022-05-24 15:24:02.699,13.1550081074238,0.69,1.99,5,18.56
2022-05-24 15:24:02.814,13.270004466176,-0.04,-2.62,6,31.4
2022-05-24 15:24:02.929,13.3850008249283,-0.61,-3.98,3,39.16
2022-05-24 15:24:03.043,13.4990014135838,-0.59,-1.41,0,9.13
2022-05-24 15:24:03.158,13.6140078306198,-0.24,1.41,-2,-12.28
2022-05-24 15:24:03.273,13.7290041893721,0.31,4.26,-3,-29.03
2022-05-24 15:24:03.388,13.8440005481243,0.79,5.76,0,-35.76
2022-05-24 15:24:03.502,13.9580011367798,0.97,5.12,4,-15.07
2022-05-24 15:24:03.617,14.0730075538158,1.1,5.38,6,-1.6
2022-05-24 15:24:03.728,14.1840007156134,1.06,4.5,6,7.8
2022-05-24 15:24:03.842,14.2980013042688,0.41,-0.61,5,29.72
2022-05-24 15:24:03.956,14.4120018929243,-0.46,-4.77,4,39.42
2022-05-24 15:24:04.072,14.5280040800571,-0.79,-3.61,1,25.36
2022-05-24 15:24:04.187,14.6430004388094,-0.51,0.1,-2,-4.69
2022-05-24 15:24:04.301,14.7570010274649,0.08,3.6,-3,-28.3
2022-05-24 15:24:04.415,14.8710016161203,0.72,6.24,0,-38.52
2022-05-24 15:24:04.531,14.9870038032532,0.95,5.21,3,-14.4
2022-05-24 15:24:04.645,15.1010043919086,1.17,6.05,6,-9.39
2022-05-24 15:24:04.760,15.2160007506609,1.31,6.2,6,1.78
2022-05-24 15:24:04.874,15.3300013393164,0.92,2.43,5,16.88
2022-05-24 15:24:04.989,15.4450077563524,-0.1,-4.06,4,39.72
2022-05-24 15:24:05.103,15.5590083450079,-0.82,-5.43,2,35.21
2022-05-24 15:24:05.218,15.6740047037601,-0.81,-2.19,-2,9.34
2022-05-24 15:24:05.329,15.7850079238415,-0.25,2.28,-4,-25.76
2022-05-24 15:24:05.443,15.8990085124969,0.32,4.39,-2,-35.59
2022-05-24 15:24:05.558,16.0140048712492,0.56,3.89,2,-18.47
2022-05-24 15:24:05.673,16.1290012300014,0.89,5.43,4,-9.98
2022-05-24 15:24:05.788,16.2440076470375,1.4,8.19,6,-17.32
2022-05-24 15:24:05.903,16.3590040057898,1.29,4.99,6,9.31
2022-05-24 15:24:06.017,16.4730045944452,0.29,-2.54,5,40.27
2022-05-24 15:24:06.131,16.5870051831007,-0.62,-5.52,3,41.06
2022-05-24 15:24:06.246,16.702001541853,-0.67,-1.97,-3,11.66
2022-05-24 15:24:06.362,16.8180037289858,-0.1,2.85,-3,-34.74
2022-05-24 15:24:06.476,16.9320043176413,0.2,2.78,-2,-20.74
2022-05-24 15:24:06.590,17.0460049062967,0.43,3.37,1,-19.31
2022-05-24 15:24:06.705,17.161001265049,0.98,6.74,3,-22.17
2022-05-24 15:24:06.820,17.276007682085,1.44,8.08,5,-18.9
2022-05-24 15:24:06.930,17.3860050737858,1.17,3.88,6,10.75
2022-05-24 15:24:07.046,17.5020072609186,0.24,-2.44,6,39.38
2022-05-24 15:24:07.159,17.6150020211935,-0.76,-6.41,3,50.37
2022-05-24 15:24:07.274,17.7300084382296,-0.74,-1.91,0,8.3
2022-05-24 15:24:07.388,17.8439989686012,-0.42,0.57,-4,-8.86
2022-05-24 15:24:07.503,17.9590053856373,0.08,3.19,-4,-34.82
2022-05-24 15:24:07.618,18.0740017443895,0.47,4.24,0,-32.04
2022-05-24 15:24:07.733,18.1890081614256,0.67,4.08,3,-10.62
2022-05-24 15:24:07.848,18.3040045201778,1.17,7.24,4,-17.24
2022-05-24 15:24:07.962,18.4180051088333,1.51,7.81,6,-15.27
2022-05-24 15:24:08.078,18.5340072959661,1.01,2.3,7,21.38
2022-05-24 15:24:08.192,18.6480078846216,-0.31,-6.17,5,59.28
2022-05-24 15:24:08.306,18.7620084732771,-0.65,-3.12,0,23.33
2022-05-24 15:24:08.422,18.8780006021261,-0.34,0.78,-4,-13.82
2022-05-24 15:24:08.532,18.9880080521107,-0.35,-0.55,-3,-15.59
2022-05-24 15:24:08.646,19.1020086407661,-0.14,1.14,-3,-15.85
2022-05-24 15:24:08.761,19.2170049995184,0.51,5.47,1,-36.98
2022-05-24 15:24:08.877,19.3330071866512,1.08,7.24,3,-20.89
2022-05-24 15:24:08.990,19.4460019469261,1.29,6.41,5,-10.25
2022-05-24 15:24:09.105,19.5610083639622,1.03,3.46,5,10.51
2022-05-24 15:24:09.220,19.6760047227144,0.06,-3.31,4,38.02
2022-05-24 15:24:09.333,19.7889994829893,-0.82,-6.16,3,39.15
2022-05-24 15:24:09.449,19.9050016701221,-0.89,-2.82,-2,15.92
2022-05-24 15:24:09.563,20.0190022587776,-0.36,1.7,-4,-25.46
2022-05-24 15:24:09.678,20.1340086758137,-0.02,2.14,-2,-25.54
2022-05-24 15:24:09.793,20.2490050345659,0.3,3.27,1,-18.51
2022-05-24 15:24:09.908,20.3640013933182,0.89,6.6,3,-21.83
2022-05-24 15:24:10.024,20.480003580451,1.51,9.05,5,-24.14
2022-05-24 15:24:10.137,20.5930083990097,1.3,4.59,7,8.2
2022-05-24 15:24:10.248,20.7040015608072,0.32,-2.31,7,44.34
2022-05-24 15:24:10.362,20.8180021494627,-0.58,-5.33,4,48.62
2022-05-24 15:24:10.478,20.9340043365955,-0.64,-1.94,0,13.56
2022-05-24 15:24:10.592,21.048004925251,-0.46,-0.17,-4,-6.39
2022-05-24 15:24:10.706,21.1620055139065,-0.21,1.07,-4,-25.06
2022-05-24 15:24:10.821,21.2770018726587,0.21,3.39,-3,-30.22
2022-05-24 15:24:10.936,21.3920082896948,0.57,4.4,1,-27.89
2022-05-24 15:24:11.051,21.507004648447,0.82,4.9,4,-11.07
2022-05-24 15:24:11.165,21.6210052371025,1.05,5.62,5,-4.6
2022-05-24 15:24:11.281,21.7370074242353,0.88,3.27,5,9.01
2022-05-24 15:24:11.394,21.8500021845102,-0.17,-4.5,5,43.68
2022-05-24 15:24:11.509,21.9650086015463,-0.99,-6.49,3,44.28
2022-05-24 15:24:11.624,22.0800049602985,-0.85,-1.78,-3,9.16
2022-05-24 15:24:11.739,22.1950013190508,-0.15,3.25,-4,-36.78
2022-05-24 15:24:11.849,22.3050087690353,0.05,1.76,-2,-20.46
2022-05-24 15:24:11.963,22.418999299407,0.21,2.25,1,-14.03
2022-05-24 15:24:12.078,22.5340057164431,0.73,5.71,3,-18.74
2022-05-24 15:24:12.193,22.6490020751953,1.17,7.01,6,-15.04
2022-05-24 15:24:12.308,22.7640084922314,1.01,3.75,5,14.96
2022-05-24 15:24:12.423,22.8790048509836,-0.1,-4.5,4,43.25
2022-05-24 15:24:12.539,22.9950070381165,-0.93,-6.34,2,38.82
2022-05-24 15:24:12.652,23.1080017983913,-0.89,-2.34,0,8.65
2022-05-24 15:24:12.767,23.2230082154274,-0.43,1.14,-4,-10.51
2022-05-24 15:24:12.881,23.3369987457991,0.34,5.33,-4,-44.4
2022-05-24 15:24:12.996,23.4520051628351,0.85,6.13,0,-38.49
2022-05-24 15:24:13.110,23.5660057514906,0.83,3.7,4,-6.2
2022-05-24 15:24:13.226,23.6820079386234,1.03,5.43,7,-3.66
2022-05-24 15:24:13.339,23.7950026988983,1.41,7.61,6,-2.66
2022-05-24 15:24:13.450,23.9060059189796,0.94,2.19,4,18.36
2022-05-24 15:24:13.564,24.0200065076351,-0.33,-6.03,4,43.99
2022-05-24 15:24:13.679,24.1350028663874,-1.04,-6.26,1,37.91
2022-05-24 15:24:13.797,24.2530066519976,-0.74,-0.63,-2,-4.6
2022-05-24 15:24:13.909,24.3650056421757,0.00999999999999998,4.02,-4,-31.45
2022-05-24 15:24:14.024,24.4800020009279,0.56,5.21,-3,-37.89
2022-05-24 15:24:14.138,24.5940025895834,0.62,3.33,2,-20.14
2022-05-24 15:24:14.253,24.7089989483356,0.63,3.09,4,1.72
2022-05-24 15:24:14.368,24.8240053653717,0.82,4.62,5,-2.91
2022-05-24 15:24:14.483,24.939001724124,0.62,2.17,5,13.68
2022-05-24 15:24:14.598,25.05400814116,-0.36,-4.88,4,44.67
2022-05-24 15:24:14.712,25.1680087298155,-1.01,-5.87,1,36.31
2022-05-24 15:24:14.827,25.2830050885677,-0.65,-0.05,-3,-6.91
2022-05-24 15:24:14.941,25.3970056772232,0.1,4.38,-3,-37.46
2022-05-24 15:24:15.051,25.507003068924,0.63,5.36,0,-31.95
2022-05-24 15:24:15.167,25.6230052560568,0.87,5,3,-14.65
2022-05-24 15:24:15.281,25.7370058447123,1.39,8.13,5,-20.13
2022-05-24 15:24:15.396,25.8520022034645,1.7,8.39,7,-11.74
2022-05-24 15:24:15.511,25.9670086205006,1.38,4.43,7,15.48
2022-05-24 15:24:15.625,26.0809991508722,0.2,-3.66,7,48.38
2022-05-24 15:24:15.740,26.1960055679083,-0.6,-4.97,4,45.91
2022-05-24 15:24:15.854,26.3100061565638,-0.44,-0.22,0,5.43
2022-05-24 15:24:15.969,26.425002515316,0,2.67,-3,-18.52
2022-05-24 15:24:16.084,26.5399988740683,0.28,2.98,-2,-26.26
2022-05-24 15:24:16.198,26.6539994627237,0.49,3.47,0,-19.94
2022-05-24 15:24:16.313,26.7690058797598,0.74,4.54,2,-16.45
2022-05-24 15:24:16.428,26.884002238512,1.03,5.87,4,-14.74
2022-05-24 15:24:16.545,27.0010001957417,0.97,4.05,4,3.14
2022-05-24 15:24:16.653,27.1090060472488,0.1,-2.71,4,31.97
2022-05-24 15:24:16.768,27.2240024060011,-0.68,-5.18,2,36.07
2022-05-24 15:24:16.883,27.3389987647533,-0.83,-2.99,-2,12.69
2022-05-24 15:24:16.998,27.4540051817894,-0.49,0.44,-4,-18.53
2022-05-24 15:24:17.112,27.5680057704449,-0.01,2.77,-3,-30.65
2022-05-24 15:24:17.228,27.6840079575777,0.55,5.27,0,-33.11
2022-05-24 15:24:17.341,27.7970027178526,1.07,6.98,4,-25.43
2022-05-24 15:24:17.456,27.9119990766048,1.47,7.88,7,-12.26
2022-05-24 15:24:17.573,28.0290070921183,1.55,6.86,8,3.43
2022-05-24 15:24:17.685,28.1410060822964,1.16,3.29,9,21.02
2022-05-24 15:24:17.800,28.2560024410486,0.18,-2.83,7,51.09
2022-05-24 15:24:17.915,28.3709987998009,-0.2,-1.71,3,28.08
2022-05-24 15:24:18.029,28.4849993884563,0.11,2.51,0,-8.19
2022-05-24 15:24:18.140,28.5960026085377,0.44,3.79,0,-18.76
2022-05-24 15:24:18.255,28.7109989672899,1.01,6.98,0,-29.48
2022-05-24 15:24:18.369,28.8249995559454,1.36,7.27,3,-27.33
2022-05-24 15:24:18.485,28.9410017430782,1.29,5.23,5,-2.42
2022-05-24 15:24:18.599,29.0550023317337,1.17,4.58,5,4.02
2022-05-24 15:24:18.713,29.1690029203892,0.62,0.65,5,20.26
2022-05-24 15:24:18.828,29.2839992791414,-0.42,-5.37,4,45.59
2022-05-24 15:24:18.943,29.3990056961775,-0.96,-5.14,0,32.15
2022-05-24 15:24:19.058,29.5140020549297,-0.79,-1.48,-3,-3.77
2022-05-24 15:24:19.173,29.6290084719658,-0.43,0.74,-3,-19.68
2022-05-24 15:24:19.287,29.7429990023375,0.29,5,-4,-34.47
2022-05-24 15:24:19.401,29.8569995909929,0.9,6.74,0,-43.34
2022-05-24 15:24:19.516,29.972006008029,1.1,5.69,5,-15.49
2022-05-24 15:24:19.631,30.0870023667812,1.19,5.54,6,3.18
2022-05-24 15:24:19.741,30.196999758482,1.24,5.57,7,1.21
2022-05-24 15:24:19.856,30.312006175518,0.55,-0.23,7,34
2022-05-24 15:24:19.971,30.4270025342703,-0.35,-4.47,4,46.97
2022-05-24 15:24:20.085,30.5410031229258,-0.23,0.38,0,3.07
2022-05-24 15:24:20.200,30.655999481678,0.18,3.24,0,-20.64
2022-05-24 15:24:20.315,30.7710058987141,0.61,4.89,0,-20.16
2022-05-24 15:24:20.430,30.8860022574663,1.16,7.45,4,-31.29
2022-05-24 15:24:20.544,31.0000028461218,1.62,8.72,4,-14.91
2022-05-24 15:24:20.659,31.114999204874,1.94,9.36,7,-22.15
2022-05-24 15:24:20.773,31.2289997935295,1.51,4.46,8,17.71
